Snowfall_Accumulation
1.7 4.0 6.1 2.6 1.9 2.3 2.8 3.5 3.7 1.8 0.4 0.9 1.4 1.1 0.3 0.1 0.1 0.3 0.1 0.1 0.1 0.0 0.1 0.0 0.0 0.0 0.0 0.0 0.0 0.0 0.0 0.0 0.0 0.0 0.0 0.0 0.0 0.0 0.0 0.0 0.0 0.0 0.0 0.0
5.0 5.9 1.6 0.6 1.3 2.5 3.7 4.6 4.1 1.9 0.6 1.9 2.0 1.7 0.4 0.4 0.3 0.2 0.2 0.2 0.2 0.1 0.0 0.0 0.0 0.0 0.0 0.0 0.0 0.0 0.0 0.0 0.0 0.0 0.0 0.0 0.0 0.0 0.0 0.0 0.0 0.0 0.0 0.0
6.6 3.4 0.6 1.9 3.1 3.9 3.7 3.8 3.4 3.0 1.5 1.0 2.8 3.5 1.3 0.4 0.2 0.3 0.1 0.1 0.1 0.1 0.1 0.0 0.0 0.0 0.0 0.0 0.0 0.0 0.0 0.0 0.0 0.0 0.0 0.0 0.0 0.0 0.0 0.0 0.0 0.0 0.0 0.0
4.5 1.7 0.9 3.2 3.9 3.7 4.6 1.3 1.8 2.9 4.9 5.7 4.7 8.5 3.2 1.3 0.8 0.4 0.3 0.4 0.4 0.1 0.1 0.0 0.0 0.0 0.1 0.0 0.0 0.0 0.0 0.0 0.0 0.0 0.0 0.0 0.0 0.0 0.0 0.0 0.0 0.0 0.0 0.0
5.8 2.1 2.1 3.8 2.9 2.5 2.8 0.8 1.5 2.9 6.4 7.6 4.7 8.6 4.2 1.8 1.8 1.4 1.2 0.5 0.5 0.3 0.2 0.2 0.1 0.1 0.1 0.0 0.0 0.0 0.0 0.0 0.0 0.0 0.0 0.0 0.1 0.1 0.0 0.0 0.0 0.0 0.0 0.0
3.2 1.3 2.4 2.5 0.9 1.0 1.5 1.6 2.0 3.9 8.1 16.7 5.6 6.5 5.2 4.0 4.2 2.5 1.4 0.7 0.7 0.4 0.2 0.4 0.1 0.2 0.0 0.0 0.0 0.0 0.0 0.0 0.0 0.0 0.0 0.0 0.1 0.1 0.0 0.1 0.0 0.0 0.0 0.0
6.8 3.2 1.8 1.2 3.6 2.9 4.9 12.7 24.3 25.7 25.6 14.5 2.8 4.4 5.2 3.9 2.9 2.9 2.3 1.3 0.8 0.7 0.8 0.8 0.6 0.3 0.2 0.2 0.1 0.0 0.0 0.1 0.0 0.0 0.1 0.0 0.0 0.0 0.1 0.1 0.2 0.1 0.1 0.1
9.6 7.7 3.0 2.1 3.7 6.1 6.4 10.6 19.2 18.4 12.7 6.3 3.0 4.0 4.5 3.3 2.6 2.4 2.2 1.6 1.1 1.0 0.9 0.8 0.7 0.5 0.4 0.3 0.2 0.1 0.1 0.1 0.0 0.0 0.0 0.0 0.0 0.0 0.0 0.1 0.1 0.2 0.2 0.1
10.2 7.0 2.1 1.6 1.7 3.3 7.8 10.2 7.4 12.8 9.3 6.5 4.8 3.3 2.9 2.2 2.2 1.9 2.2 1.9 1.7 1.2 0.9 1.0 0.9 0.8 0.5 0.4 0.3 0.2 0.2 0.1 0.1 0.1 0.1 0.0 0.0 0.0 0.0 0.2 0.3 0.3 0.2 0.2
10.3 9.9 3.6 1.6 2.0 2.0 3.8 6.3 10.1 18.2 15.5 8.6 4.6 3.2 4.1 3.4 3.0 2.4 2.3 2.5 2.3 1.7 1.4 1.1 1.0 1.0 0.8 0.8 0.6 0.3 0.3 0.2 0.1 0.0 0.1 0.1 0.1 0.0 0.1 0.2 0.3 0.3 0.3 0.2
9.1 12.3 7.9 4.3 6.4 6.8 5.9 7.9 11.5 15.0 13.1 10.5 6.4 4.7 4.3 3.9 3.7 3.7 3.2 3.2 3.5 3.0 1.8 1.6 1.5 1.1 0.9 0.7 0.4 0.3 0.2 0.2 0.3 0.1 0.1 0.1 0.2 0.2 0.2 0.2 0.3 0.2 0.2 0.1
8.5 12.9 11.6 5.9 2.7 2.6 4.9 6.8 9.4 16.0 12.9 8.4 7.3 4.9 3.1 3.1 3.3 3.4 3.4 3.5 3.1 3.2 2.4 1.4 1.7 1.3 0.9 0.7 0.7 0.6 0.5 0.3 0.3 0.3 0.3 0.3 0.2 0.2 0.2 0.3 0.2 0.1 0.1 0.1
14.5 19.7 18.4 10.0 5.6 4.3 7.0 6.4 7.2 9.7 11.1 8.9 7.7 4.5 2.1 1.7 1.9 2.3 3.0 3.4 3.3 3.3 2.7 1.9 1.6 1.4 1.7 1.2 1.0 0.9 0.6 0.4 0.4 0.3 0.3 0.3 0.4 0.3 0.4 0.3 0.2 0.1 0.1 0.2
14.0 23.0 15.3 12.4 9.1 8.8 8.9 6.7 6.3 10.4 14.3 8.1 4.4 3.9 2.6 1.9 2.0 2.4 2.8 3.5 3.8 3.4 3.3 2.8 2.3 2.2 1.8 1.6 1.2 1.1 0.7 0.5 0.5 0.4 0.4 0.2 0.2 0.3 0.2 0.3 0.3 0.3 0.1 0.6
15.3 20.0 8.5 4.4 3.7 5.1 5.7 5.1 5.4 7.7 7.6 7.2 3.6 3.3 3.5 3.6 3.4 3.6 3.7 3.6 3.6 3.7 3.7 3.2 3.3 2.8 2.8 2.3 1.6 1.2 0.9 0.8 0.5 0.4 0.5 0.3 0.3 0.3 0.2 0.3 0.4 0.3 0.5 0.6
15.2 17.5 9.0 5.1 2.8 3.9 4.8 3.7 3.9 4.4 4.0 4.1 2.9 2.9 2.5 2.8 3.0 3.4 3.5 3.9 4.2 4.4 3.9 3.6 3.1 3.0 3.0 3.2 2.6 1.6 1.6 1.2 1.0 1.0 1.0 0.6 0.6 0.5 0.7 0.6 0.5 0.8 0.9 1.2
16.1 16.4 15.1 9.4 3.9 7.0 9.0 5.2 4.6 4.5 4.2 4.4 5.0 4.0 2.8 2.8 3.3 4.1 4.3 4.2 4.8 4.9 4.9 4.1 3.4 3.4 3.5 3.2 3.0 2.6 2.5 1.8 1.8 1.8 1.4 1.3 1.2 1.1 1.2 1.2 1.2 1.6 1.6 1.7
13.0 15.1 19.2 14.9 11.2 15.1 7.0 4.0 3.9 4.7 5.1 5.0 4.7 4.0 3.7 3.9 4.0 4.1 4.7 5.2 5.0 4.9 4.7 4.4 4.1 3.3 3.5 3.2 2.9 2.8 2.3 2.0 1.9 1.9 1.8 1.8 1.7 1.8 1.8 1.7 1.8 1.7 1.8 1.9
6.4 14.1 22.2 20.8 16.3 9.1 4.2 3.7 5.3 6.1 6.3 5.4 4.6 3.7 3.2 3.3 3.2 3.4 4.2 5.4 6.3 5.8 5.1 4.6 4.3 3.8 3.0 2.7 3.0 2.6 2.7 2.8 2.7 2.6 2.3 2.3 2.4 2.4 2.4 2.5 2.5 2.4 2.6 2.5
6.5 12.1 22.8 22.5 17.8 9.5 5.1 3.3 3.7 4.9 7.2 4.8 4.7 4.7 4.1 3.9 4.6 4.8 4.6 5.3 5.7 5.0 4.8 4.6 3.6 3.2 2.6 2.7 2.7 2.6 3.0 2.9 3.1 3.3 2.9 2.8 2.7 2.6 2.7 2.7 2.6 2.4 2.7 3.0
11.0 17.6 21.8 17.7 15.3 7.3 4.5 3.3 3.0 7.0 8.6 4.7 4.8 5.4 5.3 5.7 6.3 5.6 4.5 4.5 4.8 4.6 4.6 4.1 3.6 3.3 2.8 2.5 2.5 2.9 3.1 3.4 3.3 2.9 2.6 2.7 2.6 2.8 2.8 2.7 2.8 2.6 2.7 2.7
8.3 12.1 12.5 11.9 14.6 8.6 4.3 4.0 6.8 8.2 5.4 4.8 4.8 4.8 5.3 5.1 4.7 4.3 3.9 4.0 3.9 3.9 4.0 4.0 3.8 3.4 2.9 2.8 2.7 3.2 3.1 3.1 2.7 2.4 2.4 2.6 2.6 2.4 2.3 2.6 2.8 2.7 2.6 2.9
6.5 8.2 8.8 8.3 7.4 5.4 5.1 6.1 6.2 5.5 5.6 4.8 4.9 4.6 4.8 5.1 5.0 4.6 3.6 3.8 3.7 3.8 3.9 3.8 3.5 3.0 3.0 2.9 2.4 3.3 3.0 2.6 2.4 2.5 2.7 2.8 2.4 2.4 2.3 2.6 2.8 2.7 2.6 3.1
4.6 4.2 6.0 6.4 4.4 3.8 3.7 3.9 4.0 4.1 4.9 4.6 4.7 5.0 5.1 5.3 5.0 4.3 3.8 3.5 3.6 3.5 3.9 3.5 3.3 3.4 3.5 3.4 2.6 3.0 2.8 2.5 2.7 2.9 2.5 2.5 2.7 2.4 2.1 2.2 2.1 2.6 3.2 4.3
4.4 4.0 5.0 5.3 3.7 3.1 2.7 2.7 2.9 3.3 3.3 3.4 3.7 4.3 4.7 4.8 4.4 4.0 3.8 3.4 3.4 3.8 3.5 3.6 3.6 3.6 3.9 3.7 3.0 2.6 2.6 2.9 3.3 2.8 2.4 2.2 2.5 2.6 2.2 2.2 2.2 3.1 3.6 5.5
3.9 4.7 5.7 5.5 3.8 4.6 3.7 2.8 2.6 2.9 3.0 3.2 3.6 3.7 3.7 3.9 3.7 3.2 3.3 3.2 3.4 3.1 3.3 3.1 3.1 3.1 3.3 3.3 3.2 2.7 2.8 3.2 3.4 3.1 2.6 2.5 2.5 2.5 2.4 2.5 2.7 2.2 2.7 3.2